Time,TemperatureF,DewpointF,PressureIn,WindDirection,WindDirectionDegrees,WindSpeedMPH,WindSpeedGustMPH,Humidity,HourlyPrecipIn,Conditions,Clouds,dailyrainin,SoftwareType,DateUTC
2013-07-06 00:43:00,-999.0,-99.9,-100.00,North,360,14.0,15.0,-999,-99.99,,,-99.99,,2013-07-06 04:43:00,
2013-07-06 00:53:00,-999.0,-99.9,-100.00,SW,230,13.0,14.0,-999,-99.99,,,-99.99,,2013-07-06 04:53:00,
2013-07-06 01:43:00,-999.0,-99.9,-100.00,SW,230,13.0,14.0,-999,-99.99,,,-99.99,,2013-07-06 05:43:00,
2013-07-06 02:53:00,-999.0,-99.9,-100.00,SW,220,13.0,14.0,-999,-99.99,,,-99.99,,2013-07-06 06:53:00,
2013-07-06 03:02:00,-999.0,-99.9,-100.00,SW,220,13.0,14.0,-999,-99.99,,,-99.99,,2013-07-06 07:02:00,
2013-07-06 03:52:00,-999.0,-99.9,-100.00,WSW,240,14.0,16.0,-999,-99.99,,,-99.99,,2013-07-06 07:52:00,
2013-07-06 04:02:00,-999.0,-99.9,-100.00,WSW,240,14.0,16.0,-999,-99.99,,,-99.99,,2013-07-06 08:02:00,
2013-07-06 04:12:00,-999.0,-99.9,-100.00,SW,220,8.0,9.0,-999,-99.99,,,-99.99,,2013-07-06 08:12:00,
2013-07-06 04:22:00,-999.0,-99.9,-100.00,SW,220,8.0,9.0,-999,-99.99,,,-99.99,,2013-07-06 08:22:00,
2013-07-06 04:53:00,-999.0,-99.9,-100.00,SSW,210,7.0,10.0,-999,-99.99,,,-99.99,,2013-07-06 08:53:00,
2013-07-06 04:54:00,-999.0,-99.9,-100.00,North,0,0.0,0.0,-999,-99.99,,,-99.99,,2013-07-06 08:54:00,
2013-07-06 05:02:00,-999.0,-99.9,-100.00,North,0,0.0,0.0,-999,-99.99,,,-99.99,,2013-07-06 09:02:00,
2013-07-06 05:43:00,-999.0,-99.9,-100.00,SSW,210,7.0,10.0,-999,-99.99,,,-99.99,,2013-07-06 09:43:00,
2013-07-06 05:53:00,-999.0,-99.9,-100.00,SW,230,14.0,16.0,-999,-99.99,,,-99.99,,2013-07-06 09:53:00,
2013-07-06 06:12:00,-999.0,-99.9,-100.00,SW,230,13.0,14.0,-999,-99.99,,,-99.99,,2013-07-06 10:12:00,
2013-07-06 06:22:00,-999.0,-99.9,-100.00,SW,230,13.0,14.0,-999,-99.99,,,-99.99,,2013-07-06 10:22:00,
2013-07-06 06:33:00,-999.0,-99.9,-100.00,SW,230,13.0,14.0,-999,-99.99,,,-99.99,,2013-07-06 10:33:00,
2013-07-06 06:53:00,-999.0,-99.9,-100.00,North,0,0.0,0.0,-999,-99.99,,,-99.99,,2013-07-06 10:53:00,
2013-07-06 07:43:00,-999.0,-99.9,-100.00,North,0,0.0,0.0,-999,-99.99,,,-99.99,,2013-07-06 11:43:00,
2013-07-06 08:12:00,-999.0,-99.9,-100.00,SW,230,10.0,13.0,-999,-99.99,,,-99.99,,2013-07-06 12:12:00,
2013-07-06 08:22:00,-999.0,-99.9,-100.00,SW,230,10.0,13.0,-999,-99.99,,,-99.99,,2013-07-06 12:22:00,
2013-07-06 08:34:00,-999.0,-99.9,-100.00,SW,230,10.0,13.0,-999,-99.99,,,-99.99,,2013-07-06 12:34:00,
2013-07-06 08:52:00,-999.0,-99.9,-100.00,SW,230,10.0,13.0,-999,-99.99,,,-99.99,,2013-07-06 12:52:00,
2013-07-06 09:01:00,-999.0,-99.9,-100.00,SW,230,10.0,13.0,-999,-99.99,,,-99.99,,2013-07-06 13:01:00,
2013-07-06 09:12:00,-999.0,-99.9,-100.00,North,0,0.0,0.0,-999,-99.99,,,-99.99,,2013-07-06 13:12:00,
2013-07-06 09:22:00,-999.0,-99.9,-100.00,North,0,0.0,0.0,-999,-99.99,,,-99.99,,2013-07-06 13:22:00,
2013-07-06 10:12:00,-999.0,-99.9,-100.00,SW,230,9.0,12.0,-999,-99.99,,,-99.99,,2013-07-06 14:12:00,
2013-07-06 10:22:00,-999.0,-99.9,-100.00,SW,230,9.0,12.0,-999,-99.99,,,-99.99,,2013-07-06 14:22:00,
2013-07-06 11:08:00,-999.0,-99.9,-100.00,SW,230,5.0,8.0,-999,-99.99,,,-99.99,,2013-07-06 15:08:00,
2013-07-06 11:38:00,-999.0,-99.9,-100.00,North,0,0.0,0.0,-999,-99.99,,,-99.99,,2013-07-06 15:38:00,
2013-07-06 11:43:00,-999.0,-99.9,-100.00,SW,230,5.0,8.0,-999,-99.99,,,-99.99,,2013-07-06 15:43:00,
2013-07-06 11:53:00,-999.0,-99.9,-100.00,SW,230,5.0,8.0,-999,-99.99,,,-99.99,,2013-07-06 15:53:00,
2013-07-06 12:17:00,-999.0,-99.9,-100.00,North,0,0.0,0.0,-999,-99.99,,,-99.99,,2013-07-06 16:17:00,
2013-07-06 12:23:00,-999.0,-99.9,-100.00,SW,230,9.0,10.0,-999,-99.99,,,-99.99,,2013-07-06 16:23:00,
2013-07-06 13:08:00,-999.0,-99.9,-100.00,SW,230,10.0,13.0,-999,-99.99,,,-99.99,,2013-07-06 17:08:00,
2013-07-06 13:38:00,-999.0,-99.9,-100.00,SW,220,14.0,15.0,-999,-99.99,,,-99.99,,2013-07-06 17:38:00,
2013-07-06 14:08:00,-999.0,-99.9,-100.00,SW,230,13.0,15.0,-999,-99.99,,,-99.99,,2013-07-06 18:08:00,
2013-07-06 14:29:00,-999.0,-99.9,-100.00,SW,220,14.0,15.0,-999,-99.99,,,-99.99,,2013-07-06 18:29:00,
2013-07-06 15:08:00,-999.0,-99.9,-100.00,SW,230,10.0,13.0,-999,-99.99,,,-99.99,,2013-07-06 19:08:00,
2013-07-06 15:23:00,-999.0,-99.9,-100.00,SW,230,12.0,14.0,-999,-99.99,,,-99.99,,2013-07-06 19:23:00,
2013-07-06 16:08:00,-999.0,-99.9,-100.00,SW,220,13.0,15.0,-999,-99.99,,,-99.99,,2013-07-06 20:08:00,
2013-07-06 16:38:00,-999.0,-99.9,-100.00,SSE,160,15.0,16.0,-999,-99.99,,,-99.99,,2013-07-06 20:38:00,
2013-07-06 17:08:00,-999.0,-99.9,-100.00,WSW,240,14.0,16.0,-999,-99.99,,,-99.99,,2013-07-06 21:08:00,
2013-07-06 18:23:00,-999.0,-99.9,-100.00,WSW,240,15.0,18.0,-999,-99.99,,,-99.99,,2013-07-06 22:23:00,
2013-07-06 19:08:00,-999.0,-99.9,-100.00,WSW,240,15.0,17.0,-999,-99.99,,,-99.99,,2013-07-06 23:08:00,
2013-07-06 20:08:00,-999.0,-99.9,-100.00,SW,230,16.0,18.0,-999,-99.99,,,-99.99,,2013-07-07 00:08:00,
2013-07-06 21:02:00,-999.0,-99.9,-100.00,SW,230,16.0,18.0,-999,-99.99,,,-99.99,,2013-07-07 01:02:00,
2013-07-06 21:08:00,-999.0,-99.9,-100.00,WSW,240,15.0,16.0,-999,-99.99,,,-99.99,,2013-07-07 01:08:00,
2013-07-06 21:38:00,-999.0,-99.9,-100.00,SW,230,12.0,13.0,-999,-99.99,,,-99.99,,2013-07-07 01:38:00,